SCP
0 0 0 0 0 0 0 -0 0 0 0 0 0 0 0 0 0 0 0 0 0 0 0 0 0 -0 -0 -0 -0 -0 -0 -0 -0 -0 -0 -0 -0 -0 0 -0 0 0 -0
0 0 0 0 0 0 0 -0 0 0 -0 0 0 0 0 -0 0 -0 0 0 0 0 0 -0 0 0 -0 -0 -0 -0 -0 -0 -0 -0 0 -0 -0 -0 -0 -0 -0 -0 0
0 -0 -0 0 0 0 0 0 0 0 0 -0 -0 -0 -0 -0 -0 -0 -0 0 -0 -0 -0 -0 -0 -0 -0 0 -0 -0 -0 0 0 0 -0 0 0 -0 -0 -0 0 -0 -0
0 -0 -0 0 0 0 0 0 0 0 -0 -0 -0 0 -0 -0 -0 -0 -0 -0 -0 -0 -0 0 -0 -0 -0 0 0 0 0 0 -0 -0 0 0 0 0 0 -0 0 0 0
0 0 0 0 0 0 0 0 0 0 0 -0 -0 -0 -0 -0 -0 -0 -0 -0 0 -0 -0 -0 -0 0 0 0 0 -0 -0 -0 -0 -0 0 0 0 0 0 0 0 0 0
0 0 0 0 0 0 0 0 0 0 0 -0 -0 -0 -0 -0 -0 0 0 0 0 0 0 0 0 0 0 0 0 0 -0 -0 -0 0 0 0 0 0 0 0 0 0 0
-0 0 0 0 0 0 0 0 0 0 0 -0 -0 -0 -0 -0 0 -0 0 0 0 0 0 0 0 0 0 0 0 0 0 -0 -0 0 0 0 0 0 0 0 0 0 0
0 0 0 0 0 0 0 0 0 0 0 0 -0 -0 -0 0 0 0 0 0 0 0 0 0 0 0 0 -0 0 0 0 -0 0 0 0 0 0 0 0 0 0 0 0
0 0 0 0 0 0 0 0 0 0 0 0 0 0 0 0 0 0 0 0 0 0 0 0 0 0 0 0 0 0 0 0 -0 0 0 0 0 0 0 0 0 0 0
0 0 0 0 0 0 0 0 0 0 0 0 0 0 0 0 0 0 0 0 0 0 0 0 0 0 0 0 0 0 0 0 0 0 0 0 0 0 0 0 0 0 0
0 0 0 0 0 0 0 0 0 0 0 0 0 0 0 0 0 0 0 0 0 0 0 0 0 0 0 0 0 0 0 0 0 0 0 0 0 0 0 0 0 0 0
0 0 0 0 0 0 0 0 0 0 0 0 0 0 0 0 0 0 0 0 0 0 0 0 0 0 0 0 0 0 0 0 0 0 0 0 0 0 0 0 0 0 0
0 0 0 0 0 0 0 0 0 0 0 0 0 0 0 0 0 0 0 0 0 0 0 0 0 0 0 0 0 0 0 0 0 0 0 0 0 0 0 0 0 0 0
0 0 0 0 0 0 0 0 0 0 0 0 0 0 0 0 0 0 0 0 0 0 0 0 0 0 0 0 0 0 0 0 0 0 0 0 0 0 0 0 0 0 0
-0 0 0 0 0 0 0 0 0 0 0 0 0 0 0 0 0 0 0 0 0 0 0 0 0 0 0 0 0 0 0 0 0 0 0 0 0 0 0 0 0 0 0
0 0 0 0 0 0 0 0 0 0 0 0 0 0 0 0 0 0 0 0 0 0 0 0 0 0 0 0 0 0 0 0 0 0 0 0 0 0 0 0 0 0 0
0 0 0 0 0 0 0 0 0 0 0 0 0 0 0 0 0 0 0 0 0 0 0 0 0 0 0 0 0 0 0 0 0 0 0 0 0 0 0 0 0 0 0
0 0 0 0 0 0 0 0 0 0 0 0 0 0 0 0 0 0 0 0 0 0 0 0 0 0 0 0 0 0 0 0 0 0 0 0 0 0 0 0 0 0 0
0 0 0 0 0 0 0 0 0 0 0 0 0 0 0 0 0 0 0 0 0 0 0 0 0 0 0 0 0 0 0 0 0 0 0 0 0 0 0 0 0 0 0
0 0 0 0 0 0 0 0 0 0 0 0 0 0 0 0 0 0 0 0 0 0 0 0 0 0 0 0 0 0 0 0 0 0 0 0 0 0 0 0 0 0 0
0 0 0 0 0 0 0 0 0 0 0 0 0 0 0 0 0 0 0 0 0 0 0 0 0 0 0 0 0 0 0 0 0 0 0 0 0 0 0 0 0 0 0
0 0 0 0 0 0 0 0 0 0 0 0 0 0 0 0 0 0 0 0 0 0 0 0 0 0 0 0 0 0 0 0 0 0 0 0 0 0 0 0 0 0 0
0 0 0 0 0 0 0 0 0 0 0 0 0 0 0 0 0 0 0 0 0 0 0 0 0 0 0 0 0 0 0 0 0 0 0 0 0 0 0 0 0 0 0
0 0 0 0 0 0 0 0 0 0 0 0 0 0 0 0 0 0 0 0 0 0 0 0 0 0 0 0 0 0 0 0 0 0 0 0 0 0 0 0 0 0 0
0 0 0 0 0 0 0 0 0 0 0 0 0 0 0 0 0 0 0 0 0 0 0 0 0 0 0 0 0 0 0 0 0 0 0 0 0 0 0 0 0 0 0
0 0 0 0 0 0 0 0 0 0 0 0 0 0 0 0 0 0 0 0 0 0 0 0 0 0 0 0 0 0 0 0 0 0 0 0 0 0 0 0 0 0 0
Wind_Speed_500mb
33 36 30 21 15 17 23 28 27 23 19 21 20 20 20 20 17 15 14 13 10 14 20 19 18 20 21 21 24 24 24 24 24 22 25 24 23 24 26 26 28 25 32
39 35 29 21 17 18 25 26 25 22 18 16 15 13 12 14 14 11 12 11 16 23 24 24 24 23 23 23 24 23 22 20 20 24 28 28 24 19 17 22 22 21 22
38 35 28 20 16 18 25 27 24 21 14 14 12 10 10 13 13 11 13 13 19 19 21 19 22 22 21 21 22 23 22 21 19 20 32 21 23 25 22 16 16 17 18
37 32 26 19 15 16 22 26 23 15 11 10 10 11 13 12 11 12 14 16 17 20 16 17 14 18 19 20 21 23 22 20 23 23 18 20 18 21 22 20 17 16 18
36 31 26 20 16 16 20 24 23 21 12 6 6 6 11 12 12 10 14 16 17 13 15 15 17 14 19 20 20 20 21 22 21 20 17 17 13 21 19 19 16 13 11
36 28 21 18 16 16 18 25 26 24 18 9 3 5 5 11 14 12 11 14 16 8 9 12 15 15 16 18 17 16 17 18 20 13 13 15 8 11 16 18 15 14 15
37 32 24 16 11 12 11 13 22 25 23 14 7 2 5 7 9 10 11 9 13 11 7 6 10 11 11 12 14 13 11 12 13 10 9 10 7 9 14 16 14 11 13
36 33 26 21 18 13 11 12 13 21 23 21 16 11 7 11 10 9 8 8 9 12 9 4 3 4 4 5 6 7 8 7 8 6 5 7 5 6 15 15 14 11 11
32 30 27 22 18 17 16 15 16 22 25 24 26 19 14 14 13 13 12 11 10 9 10 9 7 6 3 2 2 2 3 5 5 4 3 4 2 2 13 15 12 11 9
36 34 30 26 22 20 17 14 14 14 19 20 25 22 19 15 17 18 18 15 12 13 14 13 13 13 11 10 9 8 7 5 6 7 6 7 7 8 12 12 12 11 10
36 36 35 33 29 25 21 18 18 18 17 17 23 22 18 14 19 20 18 21 19 20 19 19 19 20 19 18 17 16 14 13 12 11 12 14 13 12 13 15 16 14 11
37 37 36 36 34 31 28 25 23 22 22 20 23 23 22 21 22 26 24 21 22 22 23 24 25 26 26 26 25 24 23 22 21 19 19 18 18 17 17 16 18 18 15
27 31 32 32 33 34 33 31 30 29 27 26 25 25 24 25 25 27 28 27 25 24 23 24 28 29 30 31 33 33 32 32 30 30 27 24 24 23 22 20 19 22 21
24 22 25 29 32 32 33 34 35 35 33 33 30 28 30 29 29 30 30 31 32 31 30 30 28 30 34 39 38 39 40 40 39 38 38 33 31 30 30 28 26 26 23
29 26 24 25 27 30 34 35 37 38 39 38 37 35 34 35 35 34 34 35 36 36 36 37 36 35 37 40 41 44 46 47 46 47 46 42 40 39 37 37 35 32 29
25 27 28 31 29 30 33 35 36 38 39 40 42 40 38 39 39 39 39 40 41 40 39 39 41 43 44 45 46 47 50 50 53 53 53 53 48 47 47 45 43 42 39
31 34 37 37 39 41 40 40 40 41 40 42 42 42 43 43 43 43 43 43 43 45 44 45 46 47 50 51 52 52 54 54 56 58 58 59 58 56 55 53 53 50 49
48 50 49 50 49 49 49 48 46 45 45 45 45 46 45 45 46 47 49 48 45 47 48 50 51 52 53 53 54 54 56 58 59 61 61 64 64 65 62 60 58 58 56
51 47 46 45 53 59 56 52 54 54 51 49 49 50 47 46 47 50 52 52 51 52 52 53 55 56 56 55 56 56 58 62 66 66 67 67 66 69 69 66 63 62 62
38 42 44 44 45 44 54 61 61 59 56 52 52 54 52 50 49 49 51 54 55 55 56 59 59 57 60 58 60 65 63 65 68 70 71 70 69 69 69 68 69 68 65
56 58 49 48 47 47 46 55 65 67 60 56 52 50 50 50 49 50 53 55 57 57 56 59 62 62 65 66 66 69 70 68 70 72 72 72 72 67 68 68 70 71 72
51 50 57 61 56 53 51 46 46 51 53 49 47 45 45 46 46 48 50 52 56 55 54 57 62 64 64 65 67 63 62 56 48 54 50 50 52 50 51 50 50 53 55
55 51 51 52 55 57 59 57 49 45 43 41 40 42 45 46 45 44 45 47 50 53 54 52 55 58 60 62 62 59 29 27 36 40 44 48 55 59 69 66 66 64 59
43 47 52 53 55 54 58 65 58 48 41 39 40 43 45 48 46 45 46 47 51 53 58 57 55 57 56 57 59 62 66 66 47 44 53 40 47 62 71 69 62 62 66
42 39 38 39 42 45 48 57 58 54 50 47 47 47 50 53 56 54 53 52 53 55 56 58 60 61 62 63 64 64 64 65 68 76 61 65 67 61 64 68 75 72 72
19 22 23 27 31 30 31 37 44 47 47 47 48 47 45 46 47 49 47 48 51 54 58 58 59 61 64 66 67 66 69 66 65 68 73 77 78 79 72 73 80 76 64
Wind_Direction_500mb
160 165 154 147 150 148 143 139 136 145 144 140 139 145 139 137 142 143 118 117 143 107 113 116 103 95 94 98 94 99 100 98 94 88 82 77 77 75 71 65 62 64 62
157 160 156 154 154 158 155 145 149 150 156 154 150 147 153 151 147 149 139 113 119 105 95 101 97 91 88 89 93 96 95 91 96 92 82 63 67 67 75 77 74 54 56
157 160 159 159 155 159 163 154 160 170 172 176 168 171 168 149 150 137 144 123 104 105 101 93 90 83 81 85 91 92 90 90 101 95 80 69 60 59 66 79 73 73 60
161 159 159 154 152 155 166 166 163 163 166 140 169 169 171 157 152 141 163 136 122 105 97 107 101 76 80 82 85 89 80 83 85 83 70 76 68 61 60 59 61 65 62
168 166 164 160 158 156 167 170 169 161 169 147 141 161 161 167 162 147 158 135 124 105 98 96 104 74 80 82 85 85 78 80 81 75 72 80 86 49 48 45 44 44 33
175 174 169 171 170 167 169 176 175 178 167 171 135 153 176 166 161 164 151 144 137 135 110 97 100 88 88 80 81 80 74 74 72 62 64 66 49 30 28 29 30 30 28
178 183 180 178 183 180 179 186 189 180 166 183 195 201 168 182 167 159 161 162 153 152 150 119 96 84 83 77 73 73 72 73 75 69 66 62 56 3 358 6 12 15 22
183 187 192 188 186 187 189 183 191 199 198 174 191 218 207 169 181 178 185 203 188 184 190 176 130 97 71 65 63 61 64 62 63 49 55 55 58 358 332 340 351 357 4
193 197 200 202 204 196 197 207 203 200 209 206 192 209 215 198 212 212 204 216 238 220 219 226 215 222 235 272 292 321 14 23 29 8 15 5 339 299 310 325 342 349 349
193 201 206 210 211 209 214 215 215 216 220 220 209 218 229 228 224 232 223 221 233 250 241 246 252 249 247 252 258 261 278 300 313 320 321 289 301 304 313 319 334 337 339
198 204 208 211 213 215 220 225 226 223 225 227 221 233 243 236 240 243 254 240 238 242 249 251 254 261 263 263 266 270 272 274 277 287 293 297 296 294 298 309 313 317 323
204 205 211 214 215 218 222 227 231 234 235 231 224 232 242 244 245 244 253 265 258 254 249 251 254 257 264 269 272 268 273 274 274 273 276 282 284 289 291 298 304 302 299
218 218 219 220 220 223 227 231 235 239 241 243 240 238 244 248 252 252 256 264 266 268 270 269 268 266 262 264 269 272 270 271 273 274 273 275 278 280 281 284 285 287 289
222 226 231 229 228 231 234 236 241 243 245 247 249 248 249 252 255 256 259 263 264 267 271 268 266 273 277 270 268 271 275 275 274 275 276 275 274 275 277 275 276 278 282
229 231 235 239 238 240 242 243 245 249 251 252 251 251 252 255 257 258 260 262 265 267 269 271 272 272 274 273 275 271 271 274 275 277 278 277 275 276 274 275 273 272 271
246 248 246 247 246 245 247 250 253 255 257 257 256 257 257 257 260 260 261 262 263 266 269 273 273 274 274 274 275 274 274 273 274 275 278 280 276 275 274 272 271 270 266
253 257 257 256 255 255 255 253 253 257 260 262 262 260 259 259 260 261 263 264 266 268 268 268 271 273 272 272 274 275 276 276 276 276 276 275 276 275 272 271 273 270 269
257 259 261 260 259 259 259 259 257 255 257 260 262 262 259 261 262 263 264 266 268 268 269 269 270 272 274 275 274 275 277 278 278 277 275 274 275 274 273 270 269 270 270
258 256 257 257 256 257 258 260 260 256 254 256 260 262 262 261 262 264 268 269 268 269 270 270 271 271 272 273 277 277 277 278 279 279 278 277 276 275 276 276 272 268 268
257 249 248 250 255 260 253 251 253 255 258 256 255 258 262 264 263 264 267 270 269 268 269 270 270 270 273 274 274 279 280 279 279 279 279 279 278 277 278 277 275 273 267
258 252 251 249 251 253 257 254 251 254 259 259 256 257 262 267 270 268 267 268 269 270 272 273 274 273 274 276 278 279 281 280 279 279 280 280 279 279 276 274 271 270 270
256 254 248 249 247 249 252 257 256 256 257 258 257 260 263 265 267 267 270 271 273 274 272 272 274 275 276 274 275 279 280 284 274 277 285 284 281 277 274 278 273 272 273
252 253 250 247 246 250 250 248 247 246 247 248 253 261 267 272 273 270 270 270 272 273 274 273 272 273 273 276 277 270 267 263 285 283 289 285 285 279 278 277 274 274 272
243 243 246 247 244 246 248 240 237 242 248 254 256 261 266 269 272 272 273 273 272 272 272 274 274 273 272 270 272 271 271 270 272 283 276 275 283 279 280 280 276 272 273
231 242 238 234 236 243 248 240 237 241 244 248 255 260 264 269 272 274 273 272 271 271 272 272 273 272 273 272 272 273 275 278 275 267 277 281 283 281 288 289 289 282 277
200 207 213 217 229 238 240 237 237 240 245 253 261 267 271 275 277 278 277 275 274 273 273 274 274 273 273 273 274 273 272 270 274 277 276 281 284 292 291 288 290 294 291
Wind_Speed_850mb
33 36 30 21 15 17 23 28 27 23 19 21 20 20 20 20 17 15 14 13 10 14 20 19 18 20 21 21 24 24 24 24 24 22 25 24 23 24 26 26 28 25 32
39 35 29 21 17 18 25 26 25 22 18 16 15 13 12 14 14 11 12 11 16 23 24 24 24 23 23 23 24 23 22 20 20 24 28 28 24 19 17 22 22 21 22
38 35 28 20 16 18 25 27 24 21 14 14 12 10 10 13 13 11 13 13 19 19 21 19 22 22 21 21 22 23 22 21 19 20 32 21 23 25 22 16 16 17 18
37 32 26 19 15 16 22 26 23 15 11 10 10 11 13 12 11 12 14 16 17 20 16 17 14 18 19 20 21 23 22 20 23 23 18 20 18 21 22 20 17 16 18
36 31 26 20 16 16 20 24 23 21 12 6 6 6 11 12 12 10 14 16 17 13 15 15 17 14 19 20 20 20 21 22 21 20 17 17 13 21 19 19 16 13 11
36 28 21 18 16 16 18 25 26 24 18 9 3 5 5 11 14 12 11 14 16 8 9 12 15 15 16 18 17 16 17 18 20 13 13 15 8 11 16 18 15 14 15
37 32 24 16 11 12 11 13 22 25 23 14 7 2 5 7 9 10 11 9 13 11 7 6 10 11 11 12 14 13 11 12 13 10 9 10 7 9 14 16 14 11 13
36 33 26 21 18 13 11 12 13 21 23 21 16 11 7 11 10 9 8 8 9 12 9 4 3 4 4 5 6 7 8 7 8 6 5 7 5 6 15 15 14 11 11
32 30 27 22 18 17 16 15 16 22 25 24 26 19 14 14 13 13 12 11 10 9 10 9 7 6 3 2 2 2 3 5 5 4 3 4 2 2 13 15 12 11 9
36 34 30 26 22 20 17 14 14 14 19 20 25 22 19 15 17 18 18 15 12 13 14 13 13 13 11 10 9 8 7 5 6 7 6 7 7 8 12 12 12 11 10
36 36 35 33 29 25 21 18 18 18 17 17 23 22 18 14 19 20 18 21 19 20 19 19 19 20 19 18 17 16 14 13 12 11 12 14 13 12 13 15 16 14 11
37 37 36 36 34 31 28 25 23 22 22 20 23 23 22 21 22 26 24 21 22 22 23 24 25 26 26 26 25 24 23 22 21 19 19 18 18 17 17 16 18 18 15
27 31 32 32 33 34 33 31 30 29 27 26 25 25 24 25 25 27 28 27 25 24 23 24 28 29 30 31 33 33 32 32 30 30 27 24 24 23 22 20 19 22 21
24 22 25 29 32 32 33 34 35 35 33 33 30 28 30 29 29 30 30 31 32 31 30 30 28 30 34 39 38 39 40 40 39 38 38 33 31 30 30 28 26 26 23
29 26 24 25 27 30 34 35 37 38 39 38 37 35 34 35 35 34 34 35 36 36 36 37 36 35 37 40 41 44 46 47 46 47 46 42 40 39 37 37 35 32 29
25 27 28 31 29 30 33 35 36 38 39 40 42 40 38 39 39 39 39 40 41 40 39 39 41 43 44 45 46 47 50 50 53 53 53 53 48 47 47 45 43 42 39
31 34 37 37 39 41 40 40 40 41 40 42 42 42 43 43 43 43 43 43 43 45 44 45 46 47 50 51 52 52 54 54 56 58 58 59 58 56 55 53 53 50 49
48 50 49 50 49 49 49 48 46 45 45 45 45 46 45 45 46 47 49 48 45 47 48 50 51 52 53 53 54 54 56 58 59 61 61 64 64 65 62 60 58 58 56
51 47 46 45 53 59 56 52 54 54 51 49 49 50 47 46 47 50 52 52 51 52 52 53 55 56 56 55 56 56 58 62 66 66 67 67 66 69 69 66 63 62 62
38 42 44 44 45 44 54 61 61 59 56 52 52 54 52 50 49 49 51 54 55 55 56 59 59 57 60 58 60 65 63 65 68 70 71 70 69 69 69 68 69 68 65
56 58 49 48 47 47 46 55 65 67 60 56 52 50 50 50 49 50 53 55 57 57 56 59 62 62 65 66 66 69 70 68 70 72 72 72 72 67 68 68 70 71 72
51 50 57 61 56 53 51 46 46 51 53 49 47 45 45 46 46 48 50 52 56 55 54 57 62 64 64 65 67 63 62 56 48 54 50 50 52 50 51 50 50 53 55
55 51 51 52 55 57 59 57 49 45 43 41 40 42 45 46 45 44 45 47 50 53 54 52 55 58 60 62 62 59 29 27 36 40 44 48 55 59 69 66 66 64 59
43 47 52 53 55 54 58 65 58 48 41 39 40 43 45 48 46 45 46 47 51 53 58 57 55 57 56 57 59 62 66 66 47 44 53 40 47 62 71 69 62 62 66
42 39 38 39 42 45 48 57 58 54 50 47 47 47 50 53 56 54 53 52 53 55 56 58 60 61 62 63 64 64 64 65 68 76 61 65 67 61 64 68 75 72 72
19 22 23 27 31 30 31 37 44 47 47 47 48 47 45 46 47 49 47 48 51 54 58 58 59 61 64 66 67 66 69 66 65 68 73 77 78 79 72 73 80 76 64
Wind_Direction_850mb
160 165 154 147 150 148 143 139 136 145 144 140 139 145 139 137 142 143 118 117 143 107 113 116 103 95 94 98 94 99 100 98 94 88 82 77 77 75 71 65 62 64 62
157 160 156 154 154 158 155 145 149 150 156 154 150 147 153 151 147 149 139 113 119 105 95 101 97 91 88 89 93 96 95 91 96 92 82 63 67 67 75 77 74 54 56
157 160 159 159 155 159 163 154 160 170 172 176 168 171 168 149 150 137 144 123 104 105 101 93 90 83 81 85 91 92 90 90 101 95 80 69 60 59 66 79 73 73 60
161 159 159 154 152 155 166 166 163 163 166 140 169 169 171 157 152 141 163 136 122 105 97 107 101 76 80 82 85 89 80 83 85 83 70 76 68 61 60 59 61 65 62
168 166 164 160 158 156 167 170 169 161 169 147 141 161 161 167 162 147 158 135 124 105 98 96 104 74 80 82 85 85 78 80 81 75 72 80 86 49 48 45 44 44 33
175 174 169 171 170 167 169 176 175 178 167 171 135 153 176 166 161 164 151 144 137 135 110 97 100 88 88 80 81 80 74 74 72 62 64 66 49 30 28 29 30 30 28
178 183 180 178 183 180 179 186 189 180 166 183 195 201 168 182 167 159 161 162 153 152 150 119 96 84 83 77 73 73 72 73 75 69 66 62 56 3 358 6 12 15 22
183 187 192 188 186 187 189 183 191 199 198 174 191 218 207 169 181 178 185 203 188 184 190 176 130 97 71 65 63 61 64 62 63 49 55 55 58 358 332 340 351 357 4
193 197 200 202 204 196 197 207 203 200 209 206 192 209 215 198 212 212 204 216 238 220 219 226 215 222 235 272 292 321 14 23 29 8 15 5 339 299 310 325 342 349 349
193 201 206 210 211 209 214 215 215 216 220 220 209 218 229 228 224 232 223 221 233 250 241 246 252 249 247 252 258 261 278 300 313 320 321 289 301 304 313 319 334 337 339
198 204 208 211 213 215 220 225 226 223 225 227 221 233 243 236 240 243 254 240 238 242 249 251 254 261 263 263 266 270 272 274 277 287 293 297 296 294 298 309 313 317 323
204 205 211 214 215 218 222 227 231 234 235 231 224 232 242 244 245 244 253 265 258 254 249 251 254 257 264 269 272 268 273 274 274 273 276 282 284 289 291 298 304 302 299
218 218 219 220 220 223 227 231 235 239 241 243 240 238 244 248 252 252 256 264 266 268 270 269 268 266 262 264 269 272 270 271 273 274 273 275 278 280 281 284 285 287 289
222 226 231 229 228 231 234 236 241 243 245 247 249 248 249 252 255 256 259 263 264 267 271 268 266 273 277 270 268 271 275 275 274 275 276 275 274 275 277 275 276 278 282
229 231 235 239 238 240 242 243 245 249 251 252 251 251 252 255 257 258 260 262 265 267 269 271 272 272 274 273 275 271 271 274 275 277 278 277 275 276 274 275 273 272 271
246 248 246 247 246 245 247 250 253 255 257 257 256 257 257 257 260 260 261 262 263 266 269 273 273 274 274 274 275 274 274 273 274 275 278 280 276 275 274 272 271 270 266
253 257 257 256 255 255 255 253 253 257 260 262 262 260 259 259 260 261 263 264 266 268 268 268 271 273 272 272 274 275 276 276 276 276 276 275 276 275 272 271 273 270 269
257 259 261 260 259 259 259 259 257 255 257 260 262 262 259 261 262 263 264 266 268 268 269 269 270 272 274 275 274 275 277 278 278 277 275 274 275 274 273 270 269 270 270
258 256 257 257 256 257 258 260 260 256 254 256 260 262 262 261 262 264 268 269 268 269 270 270 271 271 272 273 277 277 277 278 279 279 278 277 276 275 276 276 272 268 268
257 249 248 250 255 260 253 251 253 255 258 256 255 258 262 264 263 264 267 270 269 268 269 270 270 270 273 274 274 279 280 279 279 279 279 279 278 277 278 277 275 273 267
258 252 251 249 251 253 257 254 251 254 259 259 256 257 262 267 270 268 267 268 269 270 272 273 274 273 274 276 278 279 281 280 279 279 280 280 279 279 276 274 271 270 270
256 254 248 249 247 249 252 257 256 256 257 258 257 260 263 265 267 267 270 271 273 274 272 272 274 275 276 274 275 279 280 284 274 277 285 284 281 277 274 278 273 272 273
252 253 250 247 246 250 250 248 247 246 247 248 253 261 267 272 273 270 270 270 272 273 274 273 272 273 273 276 277 270 267 263 285 283 289 285 285 279 278 277 274 274 272
243 243 246 247 244 246 248 240 237 242 248 254 256 261 266 269 272 272 273 273 272 272 272 274 274 273 272 270 272 271 271 270 272 283 276 275 283 279 280 280 276 272 273
231 242 238 234 236 243 248 240 237 241 244 248 255 260 264 269 272 274 273 272 271 271 272 272 273 272 273 272 272 273 275 278 275 267 277 281 283 281 288 289 289 282 277
200 207 213 217 229 238 240 237 237 240 245 253 261 267 271 275 277 278 277 275 274 273 273 274 274 273 273 273 274 273 272 270 274 277 276 281 284 292 291 288 290 294 291